AirNav   Air Wisconsin Up To $57,000 Bonus
 
 1539 users online  

F62 Hayfork Airport
Hayfork, California, USA

GOING TO HAYFORK?


FAA INFORMATION EFFECTIVE 25 MARCH 2021

Location

FAA Identifier: F62
Lat/Long: 40-32-49.2000N 123-10-46.7000W
40-32.820000N 123-10.778333W
40.5470000,-123.1796389
(estimated)
Elevation: 2333.8 ft. / 711.3 m (surveyed)
Variation: 17E (1985)
From city: 1 mile S of HAYFORK, CA
Time zone: UTC -7 (UTC -8 during Standard Time)
Zip code: 96041

Airport Operations

Airport use: Open to the public
Activation date: 07/1970
Control tower: no
ARTCC: OAKLAND CENTER
FSS: RANCHO MURIETA FLIGHT SERVICE STATION
NOTAMs facility: RIU (NOTAM-D service available)
Attendance: UNATNDD
Wind indicator: lighted
Segmented circle: yes
Lights: ACTVT MIRL RWY 07/25 - CTAF. MIRL RWY 07/25 OTS INDEF
Beacon: white-green (lighted land airport)
DUSK TO DAWN. OTS INDEF

Airport Communications

CTAF/UNICOM: 122.8
WX AWOS-3 at O54 (17 nm NE): 120.850 (530-623-3810)

Airport Services

Parking: tiedowns
Airframe service: MINOR
Powerplant service: MINOR
Bottled oxygen: NONE
Bulk oxygen: NONE

Runway Information

Runway 7/25

Dimensions: 4100 x 60 ft. / 1250 x 18 m
Surface: asphalt, in fair condition
Weight bearing capacity: 
Single wheel: 12.5
Runway edge lights: medium intensity
RUNWAY 7  RUNWAY 25
Latitude: 40-32.806962N40-32.831865N
Longitude: 123-11.220862W123-10.336328W
Elevation: 2315.6 ft.2333.8 ft.
Traffic pattern: leftright
Runway heading: 070 magnetic, 087 true250 magnetic, 267 true
Markings: basic, in fair conditionbasic, in fair condition
Runway end identifier lights: nono
Touchdown point: yes, no lightsyes, no lights
Obstructions: 13 ft. tree, 330 ft. from runway, 65 ft. right of centerline, 10:1 slope to clear43 ft. tree, 850 ft. from runway, 15:1 slope to clear

Airport Ownership and Management from official FAA records

Ownership: Publicly-owned
Owner: COUNTY OF TRINITY
PO BOX 2490
WEAVERVILLE, CA 96093-0476
Phone 530-623-1365
Manager: RICK TIPPETT
PO BOX 2490
WEAVERVILLE, CA 96093-0476
Phone 530-623-1365
DIRECTOR OF TRANSPORTATION; OFFICE IN WEAVERVILLE.

Airport Operational Statistics

Aircraft based on the field: 3
Single engine airplanes: 3
    
Aircraft operations: avg 34/day *
96% transient general aviation
4% local general aviation
* for 12-month period ending 31 December 2019

Additional Remarks

HIGH TERRAIN ALL QUADRANTS.
NOISE ABATEMENT PROCEDURES IN EFFECT N, NE & S OF ARPT.
INTERMITTENTLY CLOSED WINTERS DUE TO SNOW. CTC COUNTY TRANSPORTATION OFFICE FOR INFO 530-623-1365.
FOR CD CTC OAKLAND ARTCC AT 510-745-3380.

Instrument Procedures

There are no published instrument procedures at F62.

Some nearby airports with instrument procedures:

KRDD - Redding Municipal Airport (40 nm E)
KFOT - Rohnerville Airport (43 nm W)
KEKA - Murray Field Airport (45 nm W)
KRBL - Red Bluff Municipal Airport (49 nm SE)
KACV - California Redwood Coast-Humboldt County Airport (49 nm NW)
 
Loc | Ops | Rwys | IFR | FBO | Links
Com | Nav | Svcs | Stats | Notes
Area around F62 (Hayfork Airport)
 
Road maps at: MapQuest Bing Google
 
Aerial photo
WARNING: Photo may not be current or correct
Aerial photo of F62 (Hayfork Airport)
Do you have a better or more recent aerial photo of Hayfork Airport that you would like to share? If so, please send us your photo.

 
Sectional chart

 
Airport distance calculator
Flying to Hayfork Airport? Find the distance to fly.

From to F62

Sunrise and sunset
Times for 21-Apr-2021
 Local
(UTC-7)
 Zulu
(UTC)
Morning civil twilight05:5712:57
Sunrise06:2613:26
Sunset19:5702:57
Evening civil twilight20:2603:26

Current date and time
Zulu (UTC)  21-Apr-2021 21:07:04
Local (UTC-7)  21-Apr-2021 14:07:04
 
METAR
KRDD 
40nm E 
212053Z 04017G22KT 10SM CLR 27/M04 A2979 RMK AO2 SLP081 T02721039 58017
KFOT 
49nm W 
212050Z AUTO 29011KT 7SM FEW013 SCT110 11/09 A2995 RMK AO1
KRBL 
49nm SE 
212054Z AUTO 34010G19KT 10SM CLR 27/M03 A2979 RMK AO2 SLP084 T02721033 58016
KACV 
49nm NW 
212053Z AUTO 27008KT 8SM CLR 13/08 A2993 RMK AO2 SLP141 T01280083 56015
TAF
KRDD 
40nm E 
211738Z 2118/2218 01018G30KT P6SM SKC FM212300 36013G19KT P6SM SKC FM220100 34005KT P6SM SKC
KRBL 
49nm SE 
211738Z 2118/2218 35018G32KT P6SM SKC FM212300 35013G20KT P6SM SKC FM220200 33006KT P6SM SKC
KACV 
49nm NW 
211754Z 2118/2218 31006KT 5SM HZ OVC010 FM220300 33009G15KT 5SM BR SCT007 WS015/01030KT FM220700 15004KT 4SM BR FEW004 BKN007 FM221700 30007KT 4SM BR FEW004 OVC010
NOTAMs
Click for the latest NOTAMs
NOTAMs are issued by the DoD/FAA and will open in a separate window not controlled by AirNav.

 

 
 

Would you like to see your business listed on this page?

 If your business provides an interesting product or service to pilots, flight crews, aircraft, or users of the Hayfork Airport, you should consider listing it here.  To start the listing process, click on the button below
 
Add a business
 

Other Pages about Hayfork Airport

Update a link
 
Copyright © AirNav, LLC. All rights reserved. Privacy Policy  Contact